Miscellaneous Local Product
Issued by NWS North Platte, NE

Home | Current Version | Previous Version | Text Only | Print | Product List | Glossary On
Versions: 1 2 3 4 5 6 7 8 9 10 11 12 13 14 15 16 17 18 19 20 21 22 23 24 25 26 27 28 29 30 31 32 33 34 35 36 37 38 39 40 41 42 43 44 45 46 47 48 49 50
000
AXUS43 KLBF 251210
MISLBF


WESTERN AND NORTH CENTRAL NEBRASKA HOURLY WEATHER ROUNDUP
NATIONAL WEATHER SERVICE NORTH PLATTE NE
600 AM CST SAT FEB 25 2017

NOTE: "FAIR" INDICATES FEW OR NO CLOUDS BELOW 12,000 FEET WITH NO
SIGNIFICANT WEATHER AND/OR OBSTRUCTIONS TO VISIBILITY.

NOTE: STATIONS NOT REPORTING VARIABLES SUCH AS SKY/WEATHER OR
PRESSURE ARE PROVIDED BY RAWS AND APRS NETWORKS AND ARE NOT UNDER
NATIONAL WEATHER SERVICE QUALITY CONTROL.

...OBSERVATIONS IN AND NEAR THE EASTERN PANHANDLE OF NEBRASKA...

CITY           SKY/WX    TMP DP  RH WIND       PRES   REMARKS
PINE RIDGE     CLOUDY     4   1  88 SW6       29.95F WCI  -7
CHADRON        CLEAR      2  -2  83 SW9       29.97S WCI -13
ALLIANCE       FOG      -10 -14  82 SW7       29.94S VSB 1/2 WCI -25
SIDNEY         PTCLDY     6   2  83 W9        29.95F WCI  -8
CRESCENT LAKE    N/A      7   4  88 CALM        N/A
$$

...OBSERVATIONS IN NORTHERN NEBRASKA AND FAR SOUTHERN SOUTH DAKOTA...

CITY           SKY/WX    TMP DP  RH WIND       PRES   REMARKS
WINNER         CLOUDY    17  10  74 S10       30.02F WCI   5
VALENTINE      CLOUDY    -1  -6  79 SW5       30.00F WCI -11
THEDFORD       CLOUDY     5   2  87 SW3       30.02F
AINSWORTH      CLOUDY     5   3  91 SW5       30.02S WCI  -4
O`NEILL        CLOUDY     8   6  89 W3        30.07S
ORD            CLOUDY     1  -4  79 CALM      30.08F
BROKEN BOW     CLOUDY     4   1  88 CALM      30.05F
VALENTINE NWR    N/A      9   6  85 W5          N/A  WCI   1
BUTTE            N/A      9   6  86 CALM        N/A
HALSEY           N/A      5   1  85 CALM        N/A
CHAMBERS         N/A      6  -2  68 CALM        N/A
EWING            N/A      6   4  89 CALM        N/A
$$

...OBSERVATIONS IN SOUTHWEST NEBRASKA AND FAR NORTHEAST COLORADO...

CITY           SKY/WX    TMP DP  RH WIND       PRES   REMARKS
HOLYOKE        FAIR      12   9  85 W6        30.01S WCI   3
IMPERIAL       CLEAR     11   7  84 SW7       30.04F WCI   0
OGALLALA       CLOUDY     6   3  87 CALM      30.02F
NORTH PLATTE   FOG        5   1  83 CALM      30.06F VSB 3/4
MCCOOK         CLEAR      8   6  92 W5        30.10S WCI   0
LEXINGTON      CLOUDY     5   2  85 NW5       30.09S WCI  -4
STAPLETON        N/A      2  -1  88 CALM        N/A
GOTHENBURG       N/A      7   4  86 CALM        N/A
CALLAWAY         N/A      8   6  89 W3          N/A
$$

...OBSERVATIONS IN CENTRAL LINCOLN COUNTY AREA...

CITY           SKY/WX    TMP DP  RH WIND       PRES   REMARKS
N.P. AIRPORT   FOG        5   1  83 CALM      30.06F VSB 3/4
N.P. DOWNTOWN    N/A     18  11  74 W3          N/A
N.P. SOUTHEAST   N/A     10   7  89 CALM        N/A
N.P. HILLCREST   N/A      9   7  90 CALM        N/A
$$

...SOME OBSERVATIONS FROM AROUND THE REGION...

CITY           SKY/WX    TMP DP  RH WIND       PRES   REMARKS
LARAMIE        CLOUDY     6  -3  66 SW12      29.87R WCI  -9
CHEYENNE       CLOUDY     9  -1  64 S6        29.88F WCI  -1
DENVER         PTCLDY    17   8  67 SW10      29.93F WCI   5
AKRON          CLEAR     17  11  77 SW10      29.96S WCI   5
SCOTTSBLUFF    CLOUDY    -2  -7  79 NW9       29.97S WCI -18
RAPID CITY     CLOUDY    17  10  74 W7        29.91F WCI   8
BISMARCK       CLOUDY    20  16  84 SW6       29.94F WCI  12
PIERRE         CLOUDY    22  14  71 S6        30.00F WCI  14
SIOUX FALLS    CLEAR     13  11  92 W9        30.04S WCI   1
OMAHA          PTCLDY    16  10  77 NW6       30.11R WCI   7
GRAND ISLAND   CLOUDY    10   7  87 W8        30.11F WCI  -2
KANSAS CITY    CLEAR     20  14  77 NW6       30.11R WCI  12
WICHITA        CLEAR     20  15  81 N9        30.18S WCI   9
OKLAHOMA CITY  PTCLDY    24  18  77 N9        30.20R WCI  14
DALLAS         CLEAR     38  25  59 N10       30.17R WCI  31
AMARILLO       CLEAR     20  15  81 CALM      30.12F
DODGE CITY     CLOUDY    13   9  84 W5        30.15F WCI   5
HAYS           CLEAR      8   5  87 W7        30.17S WCI  -3
GOODLAND       CLOUDY    20  16  84 SW12      30.05S WCI   8
$$




USA.gov is the U.S. government's official web portal to all federal, state and local government web resources and services.